EW3117 Weather Reports


time (UTC)temp
C
wind
direction
speed
KPH
gust
KPH
rain 1hr
cm
rain 24hr
cm
rain mn
cm
humidity
%
barometer
mb
20260503180009 15 271 6.4 12.9 0.00 0.00 0.00 68 1014.6
20260503174507 15 259 4.8 17.7 0.00 0.00 0.00 71 1014.6
20260503173005 15 328 3.2 14.5 0.00 0.00 0.00 70 1014.4
20260503171506 15 295 3.2 14.5 0.00 0.00 0.00 71 1014.3
20260503081506 12 105 0.0 3.2 0.00 0.00 0.00 78 1012.6
20260503071522 12 107 1.6 8.0 0.00 0.00 0.00 77 1012.9
20260503054509 12 28 1.6 4.8 0.00 0.00 0.00 76 1012.9
20260503053009 12 156 0.0 1.6 0.00 0.00 0.00 77 1013.1
20260503051515 12 132 0.0 4.8 0.00 0.00 0.00 78 1013.1
20260503050033 12 347 1.6 6.4 0.00 0.00 0.00 78 1013.2
20260503044522 12 41 3.2 8.0 0.00 0.00 0.00 79 1013.2
20260503043010 12 304 1.6 11.3 0.00 0.00 0.00 78 1013.0
20260503041514 12 359 4.8 11.3 0.00 0.00 0.00 78 1012.8
20260503040017 12 301 4.8 12.9 0.00 0.00 0.00 78 1012.5
20260503034522 12 359 3.2 11.3 0.00 0.00 0.00 77 1012.3
20260503033025 12 300 4.8 16.1 0.00 0.00 0.00 77 1012.2
20260503031511 13 344 8.0 19.3 0.00 0.00 0.00 76 1012.1
20260503030020 13 301 4.8 14.5 0.00 0.00 0.00 74 1012.0
20260503024522 13 1 3.2 11.3 0.00 0.00 0.00 73 1011.9
20260503023026 14 328 8.0 19.3 0.00 0.00 0.00 72 1011.7
20260503021525 15 15 6.4 14.5 0.00 0.00 0.00 70 1011.7
20260503020015 15 307 8.0 19.3 0.00 0.00 0.00 70 1011.7
20260503014518 15 326 4.8 17.7 0.00 0.00 0.00 69 1011.7
20260503013023 16 336 6.4 20.9 0.00 0.00 0.00 68 1011.8
20260503011526 16 340 8.0 17.7 0.00 0.00 0.00 67 1011.8
20260503010032 16 323 6.4 20.9 0.00 0.00 0.00 66 1011.9
20260503004513 17 334 9.7 20.9 0.00 0.00 0.00 65 1011.8
20260503003020 17 333 11.3 19.3 0.00 0.00 0.00 64 1011.9
20260503001524 17 344 8.0 27.4 0.00 0.00 0.00 63 1011.8
20260503000026 18 300 6.4 16.1 0.00 0.00 0.00 62 1011.9
20260502234532 19 325 6.4 17.7 0.00 0.00 0.00 61 1011.8
20260502233018 19 360 6.4 22.5 0.00 0.00 0.00 60 1011.9
20260502231519 20 338 8.0 16.1 0.00 0.00 0.00 60 1012.0
20260502230033 20 334 8.0 19.3 0.00 0.00 0.00 58 1012.5
20260502224526 21 342 6.4 19.3 0.00 0.00 0.00 57 1012.8
20260502223028 21 6 6.4 17.7 0.00 0.00 0.00 58 1012.8
20260502221517 21 360 11.3 17.7 0.00 0.00 0.00 57 1013.0
20260502220026 21 360 6.4 20.9 0.00 0.00 0.00 57 1013.4
20260502214527 21 358 6.4 17.7 0.00 0.00 0.00 58 1013.5
20260502213026 21 359 6.4 16.1 0.00 0.00 0.00 57 1013.6
20260502211527 21 328 9.7 16.1 0.00 0.00 0.00 56 1013.7
20260502210021 21 318 8.0 16.1 0.00 0.00 0.00 58 1013.9
20260502204504 20 20 4.8 16.1 0.00 0.00 0.00 57 1014.2
20260502203009 20 318 6.4 16.1 0.00 0.00 0.00 58 1014.4
20260502201512 19 284 8.0 17.7 0.00 0.00 0.00 61 1014.6
20260502200020 18 352 6.4 19.3 0.00 0.00 0.00 64 1014.9
20260502194523 18 1 8.0 19.3 0.00 0.00 0.00 63 1015.0
20260502193007 17 307 4.8 12.9 0.00 0.00 0.00 65 1015.1
20260502191509 17 334 4.8 14.5 0.00 0.00 0.00 66 1015.2
20260502190015 17 354 6.4 20.9 0.00 0.00 0.00 68 1015.3
20260502184530 16 304 8.0 14.5 0.00 0.00 0.00 69 1015.4
20260502183010 16 324 8.0 14.5 0.00 0.00 0.00 71 1015.4
20260502181511 16 352 6.4 16.1 0.00 0.00 0.00 72 1015.5